GW6922 Weather Reports


time (UTC)temp
C
wind
direction
speed
KPH
gust
KPH
rain 1hr
cm
rain 24hr
cm
rain mn
cm
humidity
%
barometer
mb
20260906153723 24 84 6.4 6.4 0.00 0.00 0.00 77 1014.2
20260906152702 23 201 0.0 4.8 0.00 0.00 0.00 78 1014.3
20260906151652 23 66 1.6 6.4 0.00 0.00 0.00 81 1014.4
20260906150652 23 66 1.6 8.0 0.00 0.00 0.00 79 1014.2
20260906145643 23 205 0.0 3.2 0.00 0.00 0.00 82 1014.0
20260906144622 22 110 0.0 6.4 0.00 0.00 0.00 83 1014.1
20260906143622 22 56 3.2 6.4 0.00 0.00 0.00 85 1014.2
20260906142602 22 80 4.8 8.0 0.00 0.00 0.00 85 1014.2
20260906141533 22 95 3.2 4.8 0.00 0.00 0.00 86 1014.0
20260906140503 21 138 3.2 6.4 0.00 0.00 0.00 86 1013.9
20260906135453 21 30 3.2 8.0 0.00 0.00 0.00 86 1013.9
20260906134504 21 43 9.7 9.7 0.00 0.00 0.00 87 1013.6
20260906133423 21 125 3.2 6.4 0.00 0.00 0.00 88 1013.7
20260906132402 21 18 3.2 6.4 0.00 0.00 0.00 89 1013.7
20260906131353 21 12 9.7 9.7 0.00 0.00 0.00 89 1013.8
20260906130353 21 123 3.2 6.4 0.00 0.00 0.00 90 1013.7
20260906125323 20 66 3.2 6.4 0.00 0.00 0.00 90 1013.9
20260906124321 20 25 6.4 6.4 0.00 0.00 0.00 92 1014.0
20260906123303 20 41 3.2 6.4 0.00 0.00 0.00 92 1014.0
20260906122253 20 187 1.6 4.8 0.00 0.00 0.00 93 1014.2
20260906121248 20 22 3.2 4.8 0.00 0.00 0.00 93 1013.9
20260906120202 20 70 3.2 6.4 0.00 0.00 0.00 94 1013.7
20260906115153 20 78 3.2 4.8 0.00 0.00 0.00 94 1014.0
20260906114151 20 32 0.0 6.4 0.00 0.00 0.00 94 1013.3
20260906113123 19 29 3.2 6.4 0.00 0.00 0.00 94 1013.2
20260906112123 20 61 3.2 4.8 0.00 0.00 0.00 94 1013.2
20260906111103 19 11 3.2 8.0 0.00 0.00 0.00 94 1013.0
20260906110053 20 4 6.4 6.4 0.00 0.00 0.00 94 1013.0
20260906105052 20 244 0.0 3.2 0.00 0.00 0.00 93 1012.8
20260906104022 20 40 3.2 6.4 0.00 0.00 0.00 93 1012.3
20260906103003 20 47 0.0 4.8 0.00 0.00 0.00 93 1012.5
20260906101959 20 12 6.4 8.0 0.00 0.00 0.00 93 1012.0
20260906100932 20 29 1.6 4.8 0.00 0.00 0.00 93 1012.0
20260906095923 20 92 4.8 4.8 0.00 0.00 0.00 93 1012.1
20260906094921 20 37 3.2 4.8 0.00 0.00 0.00 93 1011.7
20260906093902 20 46 4.8 6.4 0.00 0.00 0.00 93 1011.9
20260906092853 20 51 3.2 4.8 0.00 0.00 0.00 92 1012.0
20260906091832 20 108 3.2 3.2 0.00 0.00 0.00 92 1012.0
20260906090818 20 74 1.6 3.2 0.00 0.00 0.00 92 1012.1
20260906085803 21 140 1.6 4.8 0.00 0.00 0.00 91 1012.0
20260906084753 21 84 1.6 3.2 0.00 0.00 0.00 90 1012.0
20260906083732 21 37 4.8 6.4 0.00 0.00 0.00 89 1012.1
20260906082717 21 26 1.6 6.4 0.00 0.00 0.00 89 1012.1
20260906081708 21 79 4.8 6.4 0.00 0.00 0.00 88 1012.3
20260906080649 21 276 1.6 6.4 0.00 0.00 0.00 88 1011.8
20260906075633 21 143 3.2 4.8 0.00 0.00 0.00 87 1012.0
20260906074622 21 10 3.2 6.4 0.00 0.00 0.00 87 1011.8
20260906073603 21 63 1.6 6.4 0.00 0.00 0.00 87 1011.9
20260906072553 22 275 1.6 4.8 0.00 0.00 0.00 86 1012.1
20260906071533 22 49 1.6 4.8 0.00 0.00 0.00 86 1012.2
20260906070503 22 19 4.8 12.9 0.00 0.00 0.00 85 1012.2
20260906065507 22 73 0.0 6.4 0.00 0.00 0.00 85 1011.9
20260906064423 22 64 3.2 11.3 0.00 0.00 0.00 85 1012.2
20260906063422 22 64 3.2 4.8 0.00 0.00 0.00 84 1012.0
20260906062422 22 97 4.8 8.0 0.00 0.00 0.00 84 1011.9
20260906061403 22 71 4.8 12.9 0.00 0.00 0.00 83 1012.0
20260906060350 22 125 4.8 9.7 0.00 0.00 0.00 84 1012.1
20260906055348 23 45 1.6 4.8 0.00 0.00 0.00 83 1012.2
20260906054302 23 180 0.0 4.8 0.00 0.00 0.00 82 1012.2
20260906053250 23 358 3.2 6.4 0.00 0.00 0.00 81 1012.1
20260906052223 23 65 4.8 6.4 0.00 0.00 0.00 82 1012.0
20260906051202 23 35 6.4 6.4 0.00 0.00 0.00 83 1011.8
20260906050208 23 12 3.2 4.8 0.00 0.00 0.00 83 1011.7
20260906045153 23 84 4.8 6.4 0.00 0.00 0.00 83 1012.0
20260906044153 23 76 6.4 6.4 0.00 0.00 0.00 84 1011.8
20260906043132 23 33 3.2 6.4 0.00 0.00 0.00 84 1011.6
20260906042103 23 18 3.2 4.8 0.00 0.00 0.00 84 1011.3
20260906041053 23 1 3.2 4.8 0.00 0.00 0.00 83 1011.1
20260906040033 23 80 1.6 4.8 0.00 0.00 0.00 84 1011.0
20260906035037 23 13 3.2 3.2 0.00 0.00 0.00 83 1010.8
20260906034003 24 25 0.0 0.0 0.00 0.00 0.00 84 1010.9
20260906032950 24 135 0.0 3.2 0.00 0.00 0.00 82 1010.6
20260906031922 24 57 3.2 3.2 0.00 0.00 0.00 81 1010.8
20260906030903 24 15 1.6 3.2 0.00 0.00 0.00 81 1010.6
20260906025853 24 34 0.0 3.2 0.00 0.00 0.00 81 1010.5
20260906024852 24 230 0.0 3.2 0.00 0.00 0.00 81 1010.6
20260906023848 24 29 0.0 3.2 0.00 0.00 0.00 82 1010.3
20260906022823 24 269 0.0 1.6 0.00 0.00 0.00 82 1010.3
20260906021802 24 116 0.0 4.8 0.00 0.00 0.00 82 1010.4
20260906020804 24 7 0.0 4.8 0.00 0.00 0.00 81 1010.1
20260906015732 24 89 0.0 6.4 0.00 0.00 0.00 81 1009.8
20260906014725 24 332 1.6 3.2 0.00 0.00 0.00 80 1009.7
20260906013738 24 25 0.0 6.4 0.00 0.00 0.00 80 1009.6
20260906012702 25 79 0.0 8.0 0.00 0.00 0.00 80 1009.3
20260906011707 25 0 8.0 8.0 0.00 0.00 0.00 80 1009.5
20260906010653 25 86 8.0 8.0 0.00 0.00 0.00 80 1009.7
20260906005632 25 105 1.6 8.0 0.00 0.00 0.00 79 1009.6
20260906004602 25 131 3.2 8.0 0.00 0.00 0.00 78 1009.4
20260906003608 26 56 8.0 9.7 0.00 0.00 0.00 77 1009.4
20260906002523 26 28 3.2 8.0 0.00 0.00 0.00 77 1009.6
20260906001502 26 68 0.0 4.8 0.00 0.00 0.00 77 1009.5
20260906000455 27 332 1.6 4.8 0.00 0.00 0.00 77 1009.7
20260905235449 27 355 4.8 4.8 0.00 0.00 0.00 76 1009.4
20260905234423 27 25 3.2 4.8 0.00 0.00 0.00 75 1009.1
20260905233423 28 317 3.2 4.8 0.00 0.00 0.00 75 1008.9
20260905232413 28 240 0.0 12.9 0.00 0.00 0.00 75 1009.0
20260905231403 28 1 3.2 9.7 0.00 0.00 0.00 75 1008.9
20260905230353 28 27 4.8 4.8 0.00 0.00 0.00 75 1009.0
20260905225407 29 17 1.6 4.8 0.00 0.00 0.00 74 1009.0
20260905224332 29 24 3.2 6.4 0.00 0.00 0.00 73 1008.9
20260905223323 30 21 3.2 11.3 0.00 0.00 0.00 72 1008.8
20260905222306 30 211 0.0 4.8 0.00 0.00 0.00 72 1008.5
20260905221253 30 41 3.2 8.0 0.00 0.00 0.00 72 1008.4
20260905220238 30 26 6.4 14.5 0.00 0.00 0.00 71 1008.6
20260905215218 30 348 9.7 11.3 0.00 0.00 0.00 71 1008.3
20260905214202 31 311 1.6 11.3 0.00 0.00 0.00 68 1008.3
20260905213153 31 343 1.6 6.4 0.00 0.00 0.00 71 1008.2
20260905212133 31 56 4.8 8.0 0.00 0.00 0.00 69 1008.2
20260905211102 31 35 3.2 4.8 0.00 0.00 0.00 71 1008.0
20260905210052 32 296 1.6 8.0 0.00 0.00 0.00 68 1008.2
20260905205022 32 26 9.7 11.3 0.00 0.00 0.00 67 1008.0
20260905204003 32 27 8.0 8.0 0.00 0.00 0.00 65 1007.9
20260905202948 32 254 1.6 9.7 0.00 0.00 0.00 65 1008.1
20260905201919 -17 0 0.0 0.0 0.00 0.00 0.00 100
20260905200916 32 65 3.2 6.4 0.00 0.00 0.00 63 1008.2
20260905195856 32 62 1.6 3.2 0.00 0.00 0.00 65 1008.2
20260905194846 32 341 0.0 4.8 0.00 0.00 0.00 64 1008.3
20260905193846 32 142 0.0 6.4 0.00 0.00 0.00 64 1008.3
20260905192816 32 338 3.2 3.2 0.00 0.00 0.00 64 1008.1
20260905191756 32 39 1.6 8.0 0.00 0.00 0.00 65 1008.5
20260905190746 31 299 1.6 4.8 0.00 0.00 0.00 68 1008.6
20260905185716 32 10 4.8 6.4 0.00 0.00 0.00 64 1008.5
20260905184656 32 8 3.2 6.4 0.00 0.00 0.00 63 1008.5
20260905183646 32 329 4.8 6.4 0.00 0.00 0.00 64 1008.4
20260905182646 32 28 8.0 8.0 0.00 0.00 0.00 63 1008.7
20260905181626 32 65 3.2 3.2 0.00 0.00 0.00 65 1008.7
20260905180617 32 128 3.2 4.8 0.00 0.00 0.00 66 1008.8
20260905175616 32 107 1.6 4.8 0.00 0.00 0.00 63 1008.7
20260905174556 32 211 1.6 6.4 0.00 0.00 0.00 65 1008.8
20260905173526 32 48 4.8 6.4 0.00 0.00 0.00 63 1008.8
20260905172530 32 234 3.2 6.4 0.00 0.00 0.00 64 1008.7
20260905171506 32 75 1.6 4.8 0.00 0.00 0.00 65 1008.9
20260905170456 32 245 0.0 4.8 0.00 0.00 0.00 65 1009.1
20260905165446 32 209 0.0 4.8 0.00 0.00 0.00 62 1009.2
20260905164437 31 210 1.6 4.8 0.00 0.00 0.00 66 1009.1
20260905163416 32 235 0.0 3.2 0.00 0.00 0.00 67 1009.3
20260905162431 32 70 1.6 4.8 0.00 0.00 0.00 67 1009.3
20260905161416 31 9 3.2 4.8 0.00 0.00 0.00 70 1009.3
20260905160356 31 35 3.2 8.0 0.00 0.00 0.00 69 1009.3
20260905155346 30 17 6.4 6.4 0.00 0.00 0.00 71 1009.2